Year,Month,Day,Hour,Minute,Value (Times are PST for temperature in C)
2013,12,07,00,00,-3.40
2013,12,07,00,01,-3.40
2013,12,07,00,02,-3.40
2013,12,07,00,03,-3.40
2013,12,07,00,04,-3.30
2013,12,07,00,05,-3.30
2013,12,07,00,06,-3.30
2013,12,07,00,07,-3.30
2013,12,07,00,08,-3.30
2013,12,07,00,09,-3.30
2013,12,07,00,10,-3.30
2013,12,07,00,11,-3.30
2013,12,07,00,12,-3.30
2013,12,07,00,13,-3.40
2013,12,07,00,14,-3.40
2013,12,07,00,15,-3.40
2013,12,07,00,16,-3.50
2013,12,07,00,17,-3.50
2013,12,07,00,18,-3.60
2013,12,07,00,19,-3.60
2013,12,07,00,20,-3.60
2013,12,07,00,21,-3.60
2013,12,07,00,22,-3.60
2013,12,07,00,23,-3.60
2013,12,07,00,24,-3.60
2013,12,07,00,25,-3.60
2013,12,07,00,26,-3.70
2013,12,07,00,27,-3.70
2013,12,07,00,28,-3.70
2013,12,07,00,29,-3.70
2013,12,07,00,30,-3.60
2013,12,07,00,31,-3.60
2013,12,07,00,32,-3.50
2013,12,07,00,33,-3.50
2013,12,07,00,34,-3.40
2013,12,07,00,35,-3.40
2013,12,07,00,36,-3.40
2013,12,07,00,37,-3.40
2013,12,07,00,38,-3.40
2013,12,07,00,39,-3.50
2013,12,07,00,40,-3.50
2013,12,07,00,41,-3.60
2013,12,07,00,42,-3.60
2013,12,07,00,43,-3.70
2013,12,07,00,44,-3.70
2013,12,07,00,45,-3.80
2013,12,07,00,46,-3.80
2013,12,07,00,47,-3.90
2013,12,07,00,48,-4.00
2013,12,07,00,49,-4.00
2013,12,07,00,50,-4.00
2013,12,07,00,51,-4.10
2013,12,07,00,52,-4.20
2013,12,07,00,53,-4.20
2013,12,07,00,54,-4.20
2013,12,07,00,55,-4.30
2013,12,07,00,56,-4.30
2013,12,07,00,57,-4.30
2013,12,07,00,58,-4.20
2013,12,07,00,59,-4.20
2013,12,07,01,00,-4.20
2013,12,07,01,01,-4.10
2013,12,07,01,02,-4.10
2013,12,07,01,03,-4.10
2013,12,07,01,04,-4.10
2013,12,07,01,05,-4.10
2013,12,07,01,06,-4.10
2013,12,07,01,07,-4.20
2013,12,07,01,08,-4.20
2013,12,07,01,09,-4.40
2013,12,07,01,10,-4.50
2013,12,07,01,11,-4.60
2013,12,07,01,12,-4.80
2013,12,07,01,13,-4.90
2013,12,07,01,14,-5.00
2013,12,07,01,15,-5.10
2013,12,07,01,16,-5.20
2013,12,07,01,17,-5.30
2013,12,07,01,18,-5.40
2013,12,07,01,19,-5.50
2013,12,07,01,20,-5.50
2013,12,07,01,21,-5.60
2013,12,07,01,22,-5.70
2013,12,07,01,23,-5.80
2013,12,07,01,24,-5.80
2013,12,07,01,25,-5.90
2013,12,07,01,26,-5.90
2013,12,07,01,27,-6.00
2013,12,07,01,28,-6.00
2013,12,07,01,29,-6.10
2013,12,07,01,30,-6.10
2013,12,07,01,31,-6.10
2013,12,07,01,32,-6.10
2013,12,07,01,33,-6.10
2013,12,07,01,34,-6.10
2013,12,07,01,35,-6.10
2013,12,07,01,36,-6.20
2013,12,07,01,37,-6.20
2013,12,07,01,38,-6.20
2013,12,07,01,39,-6.20
2013,12,07,01,40,-6.20
2013,12,07,01,41,-6.30
2013,12,07,01,42,-6.30
2013,12,07,01,43,-6.30
2013,12,07,01,44,-6.40
2013,12,07,01,45,-6.40
2013,12,07,01,46,-6.50
2013,12,07,01,47,-6.50
2013,12,07,01,48,-6.50
2013,12,07,01,49,-6.60
2013,12,07,01,50,-6.60
2013,12,07,01,51,-6.60
2013,12,07,01,52,-6.50
2013,12,07,01,53,-6.60
2013,12,07,01,54,-6.60
2013,12,07,01,55,-6.70
2013,12,07,01,56,-6.70
2013,12,07,01,57,-6.70
2013,12,07,01,58,-6.70
2013,12,07,01,59,-6.70
2013,12,07,02,00,-6.70
2013,12,07,02,01,-6.60
2013,12,07,02,02,-6.50
2013,12,07,02,03,-6.50
2013,12,07,02,04,-6.40
2013,12,07,02,05,-6.40
2013,12,07,02,06,-6.40
2013,12,07,02,07,-6.40
2013,12,07,02,08,-6.40
2013,12,07,02,09,-6.40
2013,12,07,02,10,-6.40
2013,12,07,02,11,-6.40
2013,12,07,02,12,-6.40
2013,12,07,02,13,-6.30
2013,12,07,02,14,-6.30
2013,12,07,02,15,-6.30
2013,12,07,02,16,-6.30
2013,12,07,02,17,-6.30
2013,12,07,02,18,-6.30
2013,12,07,02,19,-6.30
2013,12,07,02,20,-6.30
2013,12,07,02,21,-6.30
2013,12,07,02,22,-6.30
2013,12,07,02,23,-6.20
2013,12,07,02,24,-6.20
2013,12,07,02,25,-6.20
2013,12,07,02,26,-6.30
2013,12,07,02,27,-6.30
2013,12,07,02,28,-6.40
2013,12,07,02,29,-6.50
2013,12,07,02,30,-6.60
2013,12,07,02,31,-6.70
2013,12,07,02,32,-6.90
2013,12,07,02,33,-7.00
2013,12,07,02,34,-7.20
2013,12,07,02,35,-7.30
2013,12,07,02,36,-7.40
2013,12,07,02,37,-7.50
2013,12,07,02,38,-7.50
2013,12,07,02,39,-7.60
2013,12,07,02,40,-7.60
2013,12,07,02,41,-7.70
2013,12,07,02,42,-7.70
2013,12,07,02,43,-7.70
2013,12,07,02,44,-7.70
2013,12,07,02,45,-7.70
2013,12,07,02,46,-7.70
2013,12,07,02,47,-7.70
2013,12,07,02,48,-7.60
2013,12,07,02,49,-7.60
2013,12,07,02,50,-7.60
2013,12,07,02,51,-7.60
2013,12,07,02,52,-7.60
2013,12,07,02,53,-7.60
2013,12,07,02,54,-7.60
2013,12,07,02,55,-7.50
2013,12,07,02,56,-7.50
2013,12,07,02,57,-7.40
2013,12,07,02,58,-7.30
2013,12,07,02,59,-7.10
2013,12,07,03,00,-7.10
2013,12,07,03,01,-7.00
2013,12,07,03,02,-7.00
2013,12,07,03,03,-6.90
2013,12,07,03,04,-6.90
2013,12,07,03,05,-6.90
2013,12,07,03,06,-6.90
2013,12,07,03,07,-6.80
2013,12,07,03,08,-6.90
2013,12,07,03,09,-6.90
2013,12,07,03,10,-7.00
2013,12,07,03,11,-7.00
2013,12,07,03,12,-7.00
2013,12,07,03,13,-7.00
2013,12,07,03,14,-7.10
2013,12,07,03,15,-7.00
2013,12,07,03,16,-7.00
2013,12,07,03,17,-7.00
2013,12,07,03,18,-6.90
2013,12,07,03,19,-6.90
2013,12,07,03,20,-6.80
2013,12,07,03,21,-6.80
2013,12,07,03,22,-6.70
2013,12,07,03,23,-6.70
2013,12,07,03,24,-6.70
2013,12,07,03,25,-6.70
2013,12,07,03,26,-6.70
2013,12,07,03,27,-6.80
2013,12,07,03,28,-6.80
2013,12,07,03,29,-6.90
2013,12,07,03,30,-7.00
2013,12,07,03,31,-7.10
2013,12,07,03,32,-7.20
2013,12,07,03,33,-7.30
2013,12,07,03,34,-7.30
2013,12,07,03,35,-7.40
2013,12,07,03,36,-7.50
2013,12,07,03,37,-7.50
2013,12,07,03,38,-7.50
2013,12,07,03,39,-7.50
2013,12,07,03,40,-7.60
2013,12,07,03,41,-7.60
2013,12,07,03,42,-7.60
2013,12,07,03,43,-7.70
2013,12,07,03,44,-7.70
2013,12,07,03,45,-7.80
2013,12,07,03,46,-7.80
2013,12,07,03,47,-7.80
2013,12,07,03,48,-7.90
2013,12,07,03,49,-7.90
2013,12,07,03,50,-7.90
2013,12,07,03,51,-7.90
2013,12,07,03,52,-8.00
2013,12,07,03,53,-8.10
2013,12,07,03,54,-8.10
2013,12,07,03,55,-8.10
2013,12,07,03,56,-8.10
2013,12,07,03,57,-8.10
2013,12,07,03,58,-8.10
2013,12,07,03,59,-8.10
2013,12,07,04,00,-8.10
2013,12,07,04,01,-8.10
2013,12,07,04,02,-8.10
2013,12,07,04,03,-8.10
2013,12,07,04,04,-8.10
2013,12,07,04,05,-8.10
2013,12,07,04,06,-8.10
2013,12,07,04,07,-8.20
2013,12,07,04,08,-8.20
2013,12,07,04,09,-8.20
2013,12,07,04,10,-8.20
2013,12,07,04,11,-8.30
2013,12,07,04,12,-8.30
2013,12,07,04,13,-8.30
2013,12,07,04,14,-8.30
2013,12,07,04,15,-8.30
2013,12,07,04,16,-8.40
2013,12,07,04,17,-8.40
2013,12,07,04,18,-8.40
2013,12,07,04,19,-8.40
2013,12,07,04,20,-8.50
2013,12,07,04,21,-8.50
2013,12,07,04,22,-8.50
2013,12,07,04,23,-8.50
2013,12,07,04,24,-8.60
2013,12,07,04,25,-8.60
2013,12,07,04,26,-8.60
2013,12,07,04,27,-8.60
2013,12,07,04,28,-8.70
2013,12,07,04,29,-8.70
2013,12,07,04,30,-8.70
2013,12,07,04,31,-8.70
2013,12,07,04,32,-8.70
2013,12,07,04,33,-8.80
2013,12,07,04,34,-8.80
2013,12,07,04,35,-8.80
2013,12,07,04,36,-8.80
2013,12,07,04,37,-8.80
2013,12,07,04,38,-8.80
2013,12,07,04,39,-8.90
2013,12,07,04,40,-8.90
2013,12,07,04,41,-8.90
2013,12,07,04,42,-8.90
2013,12,07,04,43,-8.90
2013,12,07,04,44,-9.00
2013,12,07,04,45,-9.00
2013,12,07,04,46,-9.00
2013,12,07,04,47,-9.00
2013,12,07,04,48,-9.00
2013,12,07,04,49,-9.10
2013,12,07,04,50,-9.10
2013,12,07,04,51,-9.10
2013,12,07,04,52,-9.10
2013,12,07,04,53,-9.20
2013,12,07,04,54,-9.20
2013,12,07,04,55,-9.20
2013,12,07,04,56,-9.20
2013,12,07,04,57,-9.20
2013,12,07,04,58,-9.20
2013,12,07,04,59,-9.20
2013,12,07,05,00,-9.20
2013,12,07,05,01,-9.20
2013,12,07,05,02,-9.20
2013,12,07,05,03,-9.20
2013,12,07,05,04,-9.20
2013,12,07,05,05,-9.20
2013,12,07,05,06,-9.20
2013,12,07,05,07,-9.20
2013,12,07,05,08,-9.20
2013,12,07,05,09,-9.20
2013,12,07,05,10,-9.20
2013,12,07,05,11,-9.20
2013,12,07,05,12,-9.20
2013,12,07,05,13,-9.20
2013,12,07,05,14,-9.20
2013,12,07,05,15,-9.20
2013,12,07,05,16,-9.20
2013,12,07,05,17,-9.20
2013,12,07,05,18,-9.10
2013,12,07,05,19,-9.10
2013,12,07,05,20,-9.10
2013,12,07,05,21,-9.10
2013,12,07,05,22,-9.10
2013,12,07,05,23,-9.10
2013,12,07,05,24,-9.10
2013,12,07,05,25,-9.10
2013,12,07,05,26,-9.10
2013,12,07,05,27,-9.10
2013,12,07,05,28,-9.10
2013,12,07,05,29,-9.10
2013,12,07,05,30,-9.20
2013,12,07,05,31,-9.20
2013,12,07,05,32,-9.20
2013,12,07,05,33,-9.20
2013,12,07,05,34,-9.20
2013,12,07,05,35,-9.20
2013,12,07,05,36,-9.20
2013,12,07,05,37,-9.20
2013,12,07,05,38,-9.20
2013,12,07,05,39,-9.30
2013,12,07,05,40,-9.30
2013,12,07,05,41,-9.30
2013,12,07,05,42,-9.30
2013,12,07,05,43,-9.30
2013,12,07,05,44,-9.30
2013,12,07,05,45,-9.30
2013,12,07,05,46,-9.30
2013,12,07,05,47,-9.30
2013,12,07,05,48,-9.30
2013,12,07,05,49,-9.30
2013,12,07,05,50,-9.20
2013,12,07,05,51,-9.20
2013,12,07,05,52,-9.20
2013,12,07,05,53,-9.20
2013,12,07,05,54,-9.20
2013,12,07,05,55,-9.20
2013,12,07,05,56,-9.20
2013,12,07,05,57,-9.20
2013,12,07,05,58,-9.20
2013,12,07,05,59,-9.20
2013,12,07,06,00,-9.20
2013,12,07,06,01,-9.20
2013,12,07,06,02,-9.30
2013,12,07,06,03,-9.30
2013,12,07,06,04,-9.30
2013,12,07,06,05,-9.30
2013,12,07,06,06,-9.30
2013,12,07,06,07,-9.30
2013,12,07,06,08,-9.30
2013,12,07,06,09,-9.30
2013,12,07,06,10,-9.40
2013,12,07,06,11,-9.40
2013,12,07,06,12,-9.30
2013,12,07,06,13,-9.30
2013,12,07,06,14,-9.20
2013,12,07,06,15,-9.20
2013,12,07,06,16,-9.20
2013,12,07,06,17,-9.20
2013,12,07,06,18,-9.20
2013,12,07,06,19,-9.20
2013,12,07,06,20,-9.20
2013,12,07,06,21,-9.20
2013,12,07,06,22,-9.20
2013,12,07,06,23,-9.30
2013,12,07,06,24,-9.30
2013,12,07,06,25,-9.30
2013,12,07,06,26,-9.30
2013,12,07,06,27,-9.30
2013,12,07,06,28,-9.30
2013,12,07,06,29,-9.40
2013,12,07,06,30,-9.40
2013,12,07,06,31,-9.40
2013,12,07,06,32,-9.40
2013,12,07,06,33,-9.40
2013,12,07,06,34,-9.40
2013,12,07,06,35,-9.40
2013,12,07,06,36,-9.40
2013,12,07,06,37,-9.40
2013,12,07,06,38,-9.40
2013,12,07,06,39,-9.40
2013,12,07,06,40,-9.40
2013,12,07,06,41,-9.40
2013,12,07,06,42,-9.40
2013,12,07,06,43,-9.40
2013,12,07,06,44,-9.40
2013,12,07,06,45,-9.40
2013,12,07,06,46,-9.40
2013,12,07,06,47,-9.40
2013,12,07,06,48,-9.50
2013,12,07,06,49,-9.50
2013,12,07,06,50,-9.50
2013,12,07,06,51,-9.50
2013,12,07,06,52,-9.50
2013,12,07,06,53,-9.50
2013,12,07,06,54,-9.50
2013,12,07,06,55,-9.50
2013,12,07,06,56,-9.50
2013,12,07,06,57,-9.50
2013,12,07,06,58,-9.50
2013,12,07,06,59,-9.60
2013,12,07,07,00,-9.60
2013,12,07,07,01,-9.60
2013,12,07,07,02,-9.60
2013,12,07,07,03,-9.60
2013,12,07,07,04,-9.60
2013,12,07,07,05,-9.60
2013,12,07,07,06,-9.70
2013,12,07,07,07,-9.70
2013,12,07,07,08,-9.70
2013,12,07,07,09,-9.70
2013,12,07,07,10,-9.70
2013,12,07,07,11,-9.70
2013,12,07,07,12,-9.70
2013,12,07,07,13,-9.70
2013,12,07,07,14,-9.70
2013,12,07,07,15,-9.70
2013,12,07,07,16,-9.70
2013,12,07,07,17,-9.70
2013,12,07,07,18,-9.70
2013,12,07,07,19,-9.70
2013,12,07,07,20,-9.70
2013,12,07,07,21,-9.70
2013,12,07,07,22,-9.70
2013,12,07,07,23,-9.70
2013,12,07,07,24,-9.70
2013,12,07,07,25,-9.70
2013,12,07,07,26,-9.70
2013,12,07,07,27,-9.70
2013,12,07,07,28,-9.70
2013,12,07,07,29,-9.70
2013,12,07,07,30,-9.70
2013,12,07,07,31,-9.70
2013,12,07,07,32,-9.70
2013,12,07,07,33,-9.70
2013,12,07,07,34,-9.70
2013,12,07,07,35,-9.70
2013,12,07,07,36,-9.70
2013,12,07,07,37,-9.70
2013,12,07,07,38,-9.70
2013,12,07,07,39,-9.70
2013,12,07,07,40,-9.70
2013,12,07,07,41,-9.70
2013,12,07,07,42,-9.70
2013,12,07,07,43,-9.80
2013,12,07,07,44,-9.80
2013,12,07,07,45,-9.80
2013,12,07,07,46,-9.80
2013,12,07,07,47,-9.80
2013,12,07,07,48,-9.80
2013,12,07,07,49,-9.80
2013,12,07,07,50,-9.80
2013,12,07,07,51,-9.80
2013,12,07,07,52,-9.80
2013,12,07,07,53,-9.80
2013,12,07,07,54,-9.80
2013,12,07,07,55,-9.80
2013,12,07,07,56,-9.80
2013,12,07,07,57,-9.80
2013,12,07,07,58,-9.80
2013,12,07,07,59,-9.80
2013,12,07,08,00,-9.80
2013,12,07,08,01,-9.80
2013,12,07,08,02,-9.80
2013,12,07,08,03,-9.70
2013,12,07,08,04,-9.70
2013,12,07,08,05,-9.70
2013,12,07,08,06,-9.70
2013,12,07,08,07,-9.70
2013,12,07,08,08,-9.70
2013,12,07,08,09,-9.70
2013,12,07,08,10,-9.70
2013,12,07,08,11,-9.70
2013,12,07,08,12,-9.70
2013,12,07,08,13,-9.70
2013,12,07,08,14,-9.70
2013,12,07,08,15,-9.70
2013,12,07,08,16,-9.70
2013,12,07,08,17,-9.60
2013,12,07,08,18,-9.60
2013,12,07,08,19,-9.70
2013,12,07,08,20,-9.70
2013,12,07,08,21,-9.70
2013,12,07,08,22,-9.70
2013,12,07,08,23,-9.70
2013,12,07,08,24,-9.70
2013,12,07,08,25,-9.60
2013,12,07,08,26,-9.60
2013,12,07,08,27,-9.60
2013,12,07,08,28,-9.60
2013,12,07,08,29,-9.60
2013,12,07,08,30,-9.50
2013,12,07,08,31,-9.50
2013,12,07,08,32,-9.40
2013,12,07,08,33,-9.40
2013,12,07,08,34,-9.40
2013,12,07,08,35,-9.40
2013,12,07,08,36,-9.30
2013,12,07,08,37,-9.20
2013,12,07,08,38,-9.20
2013,12,07,08,39,-9.10
2013,12,07,08,40,-9.10
2013,12,07,08,41,-9.10
2013,12,07,08,42,-9.00
2013,12,07,08,43,-8.90
2013,12,07,08,44,-8.90
2013,12,07,08,45,-8.90
2013,12,07,08,46,-8.80
2013,12,07,08,47,-8.80
2013,12,07,08,48,-8.80
2013,12,07,08,49,-8.80
2013,12,07,08,50,-8.80
2013,12,07,08,51,-8.80
2013,12,07,08,52,-8.80
2013,12,07,08,53,-8.80
2013,12,07,08,54,-8.80
2013,12,07,08,55,-8.70
2013,12,07,08,56,-8.70
2013,12,07,08,57,-8.70
2013,12,07,08,58,-8.60
2013,12,07,08,59,-8.60
2013,12,07,09,00,-8.60
2013,12,07,09,01,-8.50
2013,12,07,09,02,-8.50
2013,12,07,09,03,-8.40
2013,12,07,09,04,-8.40
2013,12,07,09,05,-8.40
2013,12,07,09,06,-8.30
2013,12,07,09,07,-8.30
2013,12,07,09,08,-8.20
2013,12,07,09,09,-8.10
2013,12,07,09,10,-8.10
2013,12,07,09,11,-8.00
2013,12,07,09,12,-7.90
2013,12,07,09,13,-7.90
2013,12,07,09,14,-7.80
2013,12,07,09,15,-7.80
2013,12,07,09,16,-7.80
2013,12,07,09,17,-7.80
2013,12,07,09,18,-7.80
2013,12,07,09,19,-7.70
2013,12,07,09,20,-7.70
2013,12,07,09,21,-7.70
2013,12,07,09,22,-7.70
2013,12,07,09,23,-7.70
2013,12,07,09,24,-7.60
2013,12,07,09,25,-7.60
2013,12,07,09,26,-7.50
2013,12,07,09,27,-7.40
2013,12,07,09,28,-7.40
2013,12,07,09,29,-7.30
2013,12,07,09,30,-7.30
2013,12,07,09,31,-7.20
2013,12,07,09,32,-7.10
2013,12,07,09,33,-7.00
2013,12,07,09,34,-7.00
2013,12,07,09,35,-6.90
2013,12,07,09,36,-6.80
2013,12,07,09,37,-6.80
2013,12,07,09,38,-6.80
2013,12,07,09,39,-6.70
2013,12,07,09,40,-6.70
2013,12,07,09,41,-6.70
2013,12,07,09,42,-6.60
2013,12,07,09,43,-6.60
2013,12,07,09,44,-6.60
2013,12,07,09,45,-6.50
2013,12,07,09,46,-6.40
2013,12,07,09,47,-6.40
2013,12,07,09,48,-6.30
2013,12,07,09,49,-6.30
2013,12,07,09,50,-6.20
2013,12,07,09,51,-6.10
2013,12,07,09,52,-6.10
2013,12,07,09,53,-6.00
2013,12,07,09,54,-5.90
2013,12,07,09,55,-5.90
2013,12,07,09,56,-5.80
2013,12,07,09,57,-5.80
2013,12,07,09,58,-5.70
2013,12,07,09,59,-5.60
2013,12,07,10,00,-5.60
2013,12,07,10,01,-5.50
2013,12,07,10,02,-5.40
2013,12,07,10,03,-5.40
2013,12,07,10,04,-5.30
2013,12,07,10,05,-5.30
2013,12,07,10,06,-5.20
2013,12,07,10,07,-5.20
2013,12,07,10,08,-5.20
2013,12,07,10,09,-5.10
2013,12,07,10,10,-5.00
2013,12,07,10,11,-5.00
2013,12,07,10,12,-4.90
2013,12,07,10,13,-4.80
2013,12,07,10,14,-4.70
2013,12,07,10,15,-4.60
2013,12,07,10,16,-4.50
2013,12,07,10,17,-4.40
2013,12,07,10,18,-4.30
2013,12,07,10,19,-4.20
2013,12,07,10,20,-4.10
2013,12,07,10,21,-4.10
2013,12,07,10,22,-4.00
2013,12,07,10,23,-3.90
2013,12,07,10,24,-3.90
2013,12,07,10,25,-3.80
2013,12,07,10,26,-3.80
2013,12,07,10,27,-3.70
2013,12,07,10,28,-3.70
2013,12,07,10,29,-3.60
2013,12,07,10,30,-3.60
2013,12,07,10,31,-3.50
2013,12,07,10,32,-3.40
2013,12,07,10,33,-3.40
2013,12,07,10,34,-3.40
2013,12,07,10,35,-3.30
2013,12,07,10,36,-3.30
2013,12,07,10,37,-3.30
2013,12,07,10,38,-3.20
2013,12,07,10,39,-3.20
2013,12,07,10,40,-3.10
2013,12,07,10,41,-3.10
2013,12,07,10,42,-3.00
2013,12,07,10,43,-2.90
2013,12,07,10,44,-2.90
2013,12,07,10,45,-2.80
2013,12,07,10,46,-2.80
2013,12,07,10,47,-2.80
2013,12,07,10,48,-2.80
2013,12,07,10,49,-2.70
2013,12,07,10,50,-2.70
2013,12,07,10,51,-2.70
2013,12,07,10,52,-2.60
2013,12,07,10,53,-2.60
2013,12,07,10,54,-2.60
2013,12,07,10,55,-2.50
2013,12,07,10,56,-2.50
2013,12,07,10,57,-2.40
2013,12,07,10,58,-2.30
2013,12,07,10,59,-2.30
2013,12,07,11,00,-2.20
2013,12,07,11,01,-2.20
2013,12,07,11,02,-2.20
2013,12,07,11,03,-2.20
2013,12,07,11,04,-2.10
2013,12,07,11,05,-2.10
2013,12,07,11,06,-2.10
2013,12,07,11,07,-2.10
2013,12,07,11,08,-2.10
2013,12,07,11,09,-2.10
2013,12,07,11,10,-2.10
2013,12,07,11,11,-2.10
2013,12,07,11,12,-2.10
2013,12,07,11,13,-2.10
2013,12,07,11,14,-2.10
2013,12,07,11,15,-2.10
2013,12,07,11,16,-2.00
2013,12,07,11,17,-2.00
2013,12,07,11,18,-2.00
2013,12,07,11,19,-1.90
2013,12,07,11,20,-1.90
2013,12,07,11,21,-1.80
2013,12,07,11,22,-1.80
2013,12,07,11,23,-1.80
2013,12,07,11,24,-1.80
2013,12,07,11,25,-1.80
2013,12,07,11,26,-1.80
2013,12,07,11,27,-1.80
2013,12,07,11,28,-1.80
2013,12,07,11,29,-1.80
2013,12,07,11,30,-1.80
2013,12,07,11,31,-1.80
2013,12,07,11,32,-1.80
2013,12,07,11,33,-1.80
2013,12,07,11,34,-1.70
2013,12,07,11,35,-1.70
2013,12,07,11,36,-1.70
2013,12,07,11,37,-1.60
2013,12,07,11,38,-1.60
2013,12,07,11,39,-1.60
2013,12,07,11,40,-1.60
2013,12,07,11,41,-1.60
2013,12,07,11,42,-1.60
2013,12,07,11,43,-1.60
2013,12,07,11,44,-1.60
2013,12,07,11,45,-1.60
2013,12,07,11,46,-1.60
2013,12,07,11,47,-1.60
2013,12,07,11,48,-1.60
2013,12,07,11,49,-1.60
2013,12,07,11,50,-1.60
2013,12,07,11,51,-1.60
2013,12,07,11,52,-1.60
2013,12,07,11,53,-1.60
2013,12,07,11,54,-1.60
2013,12,07,11,55,-1.50
2013,12,07,11,56,-1.50
2013,12,07,11,57,-1.50
2013,12,07,11,58,-1.50
2013,12,07,11,59,-1.50
2013,12,07,12,00,-1.50
2013,12,07,12,01,-1.50
2013,12,07,12,02,-1.40
2013,12,07,12,03,-1.40
2013,12,07,12,04,-1.40
2013,12,07,12,05,-1.30
2013,12,07,12,06,-1.30
2013,12,07,12,07,-1.30
2013,12,07,12,08,-1.30
2013,12,07,12,09,-1.20
2013,12,07,12,10,-1.20
2013,12,07,12,11,-1.20
2013,12,07,12,12,-1.20
2013,12,07,12,13,-1.20
2013,12,07,12,14,-1.20
2013,12,07,12,15,-1.20
2013,12,07,12,16,-1.20
2013,12,07,12,17,-1.20
2013,12,07,12,18,-1.20
2013,12,07,12,19,-1.20
2013,12,07,12,20,-1.20
2013,12,07,12,21,-1.20
2013,12,07,12,22,-1.20
2013,12,07,12,23,-1.20
2013,12,07,12,24,-1.20
2013,12,07,12,25,-1.20
2013,12,07,12,26,-1.20
2013,12,07,12,27,-1.20
2013,12,07,12,28,-1.20
2013,12,07,12,29,-1.20
2013,12,07,12,30,-1.20
2013,12,07,12,31,-1.20
2013,12,07,12,32,-1.10
2013,12,07,12,33,-1.10
2013,12,07,12,34,-1.10
2013,12,07,12,35,-1.10
2013,12,07,12,36,-1.10
2013,12,07,12,37,-1.10
2013,12,07,12,38,-1.10
2013,12,07,12,39,-1.10
2013,12,07,12,40,-1.10
2013,12,07,12,41,-1.10
2013,12,07,12,42,-1.00
2013,12,07,12,43,-1.00
2013,12,07,12,44,-1.00
2013,12,07,12,45,-0.90
2013,12,07,12,46,-0.90
2013,12,07,12,47,-0.80
2013,12,07,12,48,-0.80
2013,12,07,12,49,-0.80
2013,12,07,12,50,-0.80
2013,12,07,12,51,-0.90
2013,12,07,12,52,-0.90
2013,12,07,12,53,-0.90
2013,12,07,12,54,-0.90
2013,12,07,12,55,-0.90
2013,12,07,12,56,-0.90
2013,12,07,12,57,-0.90
2013,12,07,12,58,-0.90
2013,12,07,12,59,-0.90
2013,12,07,13,00,-0.90
2013,12,07,13,01,-0.90
2013,12,07,13,02,-1.00
2013,12,07,13,03,-1.00
2013,12,07,13,04,-1.10
2013,12,07,13,05,-1.10
2013,12,07,13,06,-1.10
2013,12,07,13,07,-1.00
2013,12,07,13,08,-1.00
2013,12,07,13,09,-0.90
2013,12,07,13,10,-0.90
2013,12,07,13,11,-0.80
2013,12,07,13,12,-0.70
2013,12,07,13,13,-0.70
2013,12,07,13,14,-0.60
2013,12,07,13,15,-0.50
2013,12,07,13,16,-0.50
2013,12,07,13,17,-0.50
2013,12,07,13,18,-0.50
2013,12,07,13,19,-0.50
2013,12,07,13,20,-0.50
2013,12,07,13,21,-0.60
2013,12,07,13,22,-0.60
2013,12,07,13,23,-0.60
2013,12,07,13,24,-0.60
2013,12,07,13,25,-0.60
2013,12,07,13,26,-0.70
2013,12,07,13,27,-0.70
2013,12,07,13,28,-0.70
2013,12,07,13,29,-0.70
2013,12,07,13,30,-0.70
2013,12,07,13,31,-0.80
2013,12,07,13,32,-0.80
2013,12,07,13,33,-0.70
2013,12,07,13,34,-0.70
2013,12,07,13,35,-0.80
2013,12,07,13,36,-0.80
2013,12,07,13,37,-0.80
2013,12,07,13,38,-0.80
2013,12,07,13,39,-0.80
2013,12,07,13,40,-0.70
2013,12,07,13,41,-0.70
2013,12,07,13,42,-0.70
2013,12,07,13,43,-0.70
2013,12,07,13,44,-0.70
2013,12,07,13,45,-0.70
2013,12,07,13,46,-0.70
2013,12,07,13,47,-0.60
2013,12,07,13,48,-0.60
2013,12,07,13,49,-0.60
2013,12,07,13,50,-0.50
2013,12,07,13,51,-0.40
2013,12,07,13,52,-0.50
2013,12,07,13,53,-0.50
2013,12,07,13,54,-0.50
2013,12,07,13,55,-0.60
2013,12,07,13,56,-0.60
2013,12,07,13,57,-0.60
2013,12,07,13,58,-0.60
2013,12,07,13,59,-0.70
2013,12,07,14,00,-0.70
2013,12,07,14,01,-0.70
2013,12,07,14,02,-0.60
2013,12,07,14,03,-0.60
2013,12,07,14,04,-0.60
2013,12,07,14,05,-0.60
2013,12,07,14,06,-0.60
2013,12,07,14,07,-0.50
2013,12,07,14,08,-0.50
2013,12,07,14,09,-0.40
2013,12,07,14,10,-0.40
2013,12,07,14,11,-0.40
2013,12,07,14,12,-0.30
2013,12,07,14,13,-0.30
2013,12,07,14,14,-0.30
2013,12,07,14,15,-0.20
2013,12,07,14,16,-0.20
2013,12,07,14,17,-0.30
2013,12,07,14,18,-0.30
2013,12,07,14,19,-0.20
2013,12,07,14,20,-0.20
2013,12,07,14,21,-0.20
2013,12,07,14,22,-0.20
2013,12,07,14,23,-0.20
2013,12,07,14,24,-0.30
2013,12,07,14,25,-0.30
2013,12,07,14,26,-0.30
2013,12,07,14,27,-0.30
2013,12,07,14,28,-0.30
2013,12,07,14,29,-0.40
2013,12,07,14,30,-0.40
2013,12,07,14,31,-0.40
2013,12,07,14,32,-0.50
2013,12,07,14,33,-0.50
2013,12,07,14,34,-0.60
2013,12,07,14,35,-0.70
2013,12,07,14,36,-0.80
2013,12,07,14,37,-0.90
2013,12,07,14,38,-1.00
2013,12,07,14,39,-1.10
2013,12,07,14,40,-1.20
2013,12,07,14,41,-1.30
2013,12,07,14,42,-1.30
2013,12,07,14,43,-1.40
2013,12,07,14,44,-1.50
2013,12,07,14,45,-1.60
2013,12,07,14,46,-1.70
2013,12,07,14,47,-1.70
2013,12,07,14,48,-1.80
2013,12,07,14,49,-1.80
2013,12,07,14,50,-1.90
2013,12,07,14,51,-1.90
2013,12,07,14,52,-2.00
2013,12,07,14,53,-2.00
2013,12,07,14,54,-2.10
2013,12,07,14,55,-2.20
2013,12,07,14,56,-2.20
2013,12,07,14,57,-2.30
2013,12,07,14,58,-2.30
2013,12,07,14,59,-2.40
2013,12,07,15,00,-2.40
2013,12,07,15,01,-2.50
2013,12,07,15,02,-2.50
2013,12,07,15,03,-2.60
2013,12,07,15,04,-2.70
2013,12,07,15,05,-2.70
2013,12,07,15,06,-2.70
2013,12,07,15,07,-2.80
2013,12,07,15,08,-2.80
2013,12,07,15,09,-2.90
2013,12,07,15,10,-3.00
2013,12,07,15,11,-3.00
2013,12,07,15,12,-3.10
2013,12,07,15,13,-3.10
2013,12,07,15,14,-3.20
2013,12,07,15,15,-3.20
2013,12,07,15,16,-3.20
2013,12,07,15,17,-3.30
2013,12,07,15,18,-3.30
2013,12,07,15,19,-3.30
2013,12,07,15,20,-3.30
2013,12,07,15,21,-3.40
2013,12,07,15,22,-3.40
2013,12,07,15,23,-3.40
2013,12,07,15,24,-3.50
2013,12,07,15,25,-3.50
2013,12,07,15,26,-3.60
2013,12,07,15,27,-3.60
2013,12,07,15,28,-3.60
2013,12,07,15,29,-3.70
2013,12,07,15,30,-3.70
2013,12,07,15,31,-3.70
2013,12,07,15,32,-3.80
2013,12,07,15,33,-3.80
2013,12,07,15,34,-3.80
2013,12,07,15,35,-3.80
2013,12,07,15,36,-3.80
2013,12,07,15,37,-3.80
2013,12,07,15,38,-3.80
2013,12,07,15,39,-3.90
2013,12,07,15,40,-3.90
2013,12,07,15,41,-3.90
2013,12,07,15,42,-3.90
2013,12,07,15,43,-3.90
2013,12,07,15,44,-4.00
2013,12,07,15,45,-4.00
2013,12,07,15,46,-4.00
2013,12,07,15,47,-4.10
2013,12,07,15,48,-4.10
2013,12,07,15,49,-4.20
2013,12,07,15,50,-4.20
2013,12,07,15,51,-4.20
2013,12,07,15,52,-4.20
2013,12,07,15,53,-4.20
2013,12,07,15,54,-4.30
2013,12,07,15,55,-4.30
2013,12,07,15,56,-4.30
2013,12,07,15,57,-4.30
2013,12,07,15,58,-4.30
2013,12,07,15,59,-4.40
2013,12,07,16,00,-4.40
2013,12,07,16,01,-4.40
2013,12,07,16,02,-4.40
2013,12,07,16,03,-4.50
2013,12,07,16,04,-4.50
2013,12,07,16,05,-4.60
2013,12,07,16,06,-4.60
2013,12,07,16,07,-4.60
2013,12,07,16,08,-4.70
2013,12,07,16,09,-4.70
2013,12,07,16,10,-4.70
2013,12,07,16,11,-4.80
2013,12,07,16,12,-4.80
2013,12,07,16,13,-4.80
2013,12,07,16,14,-4.80
2013,12,07,16,15,-4.90
2013,12,07,16,16,-4.90
2013,12,07,16,17,-5.00
2013,12,07,16,18,-5.00
2013,12,07,16,19,-5.10
2013,12,07,16,20,-5.10
2013,12,07,16,21,-5.10
2013,12,07,16,22,-5.20
2013,12,07,16,23,-5.20
2013,12,07,16,24,-5.20
2013,12,07,16,25,-5.20
2013,12,07,16,26,-5.20
2013,12,07,16,27,-5.30
2013,12,07,16,28,-5.30
2013,12,07,16,29,-5.30
2013,12,07,16,30,-5.30
2013,12,07,16,31,-5.30
2013,12,07,16,32,-5.30
2013,12,07,16,33,-5.30
2013,12,07,16,34,-5.30
2013,12,07,16,35,-5.40
2013,12,07,16,36,-5.40
2013,12,07,16,37,-5.40
2013,12,07,16,38,-5.40
2013,12,07,16,39,-5.40
2013,12,07,16,40,-5.40
2013,12,07,16,41,-5.40
2013,12,07,16,42,-5.40
2013,12,07,16,43,-5.50
2013,12,07,16,44,-5.50
2013,12,07,16,45,-5.50
2013,12,07,16,46,-5.50
2013,12,07,16,47,-5.60
2013,12,07,16,48,-5.60
2013,12,07,16,49,-5.60
2013,12,07,16,50,-5.70
2013,12,07,16,51,-5.70
2013,12,07,16,52,-5.70
2013,12,07,16,53,-5.80
2013,12,07,16,54,-5.80
2013,12,07,16,55,-5.90
2013,12,07,16,56,-5.90
2013,12,07,16,57,-5.90
2013,12,07,16,58,-5.90
2013,12,07,16,59,-6.00
2013,12,07,17,00,-6.00
2013,12,07,17,01,-6.00
2013,12,07,17,02,-6.10
2013,12,07,17,03,-6.10
2013,12,07,17,04,-6.10
2013,12,07,17,05,-6.20
2013,12,07,17,06,-6.20
2013,12,07,17,07,-6.30
2013,12,07,17,08,-6.30
2013,12,07,17,09,-6.30
2013,12,07,17,10,-6.40
2013,12,07,17,11,-6.40
2013,12,07,17,12,-6.40
2013,12,07,17,13,-6.40
2013,12,07,17,14,-6.50
2013,12,07,17,15,-6.50
2013,12,07,17,16,-6.60
2013,12,07,17,17,-6.60
2013,12,07,17,18,-6.60
2013,12,07,17,19,-6.60